Regional Weather Roundup
Issued by NWS Sioux Falls, SD

Home | Current Version | Previous Version | Text Only | Print | Product List | Glossary On
Versions: 1 2 3 4 5 6 7 8 9 10 11 12 13 14 15 16 17 18 19 20 21 22 23 24 25 26 27 28 29 30 31 32 33 34 35 36 37 38 39 40 41 42 43 44 45 46 47 48 49 50
000
ASUS43 KFSD 251010
RWRFSD

WEATHER ROUNDUP FOR SE SOUTH DAKOTA/SW MINNESOTA/NW IOWA
NATIONAL WEATHER SERVICE SIOUX FALLS SD
400 AM CST SUN JAN 25 2015

NOTE: "FAIR" INDICATES FEW OR NO CLOUDS BELOW 12,000 FEET WITH NO
SIGNIFICANT WEATHER AND OR OBSTRUCTIONS TO VISIBILITY.


SDZ038>040-050-052>070-251100-
SOUTHEAST SOUTH DAKOTA

CITY           SKY/WX    TMP DP  RH WIND       PRES   REMARKS
CHAMBERLAIN    CLOUDY    37  34  90 NW16G22   29.90R
HURON          LGT SNOW  31  30  96 N13       29.89R FOG     WCI  21
MADISON        CLOUDY    32  32 100 N16G22    29.81R WCI  21
MITCHELL       CLOUDY    33  31  92 N15       29.88R WCI  23
SIOUX FALLS    LGT SNOW  33  31  92 N17       29.80R FOG     WCI  22
WINNER         LGT RAIN  38  31  76 NW22G30   29.92R
YANKTON        CLOUDY    34  28  80 NW21G29   29.84R WCI  22
$$

MNZ071-072-080-081-089-090-097-098-251100-
SOUTHWEST MINNESOTA

CITY           SKY/WX    TMP DP  RH WIND       PRES   REMARKS
FAIRMONT       CLOUDY    34  28  80 N13       29.71R WCI  25
JACKSON        MIX PCPN  34  32  93 N17       29.72R WCI  23
LUVERNE        CLOUDY    34  32  93 N12G17    29.77R WCI  25
MARSHALL       CLOUDY    32  28  86 N12       29.82R WCI  23
MONTEVIDEO     CLOUDY    34  34 100 NE9       29.84R WCI  26
PIPESTONE      LGT SNOW  34  32  93 N10G16    29.77R WCI  26
REDWOOD FALLS  LGT SNOW  33  31  92 N9        29.80R FOG     WCI  25
TRACY          LGT SNOW  33  32  98 N12       29.78R WCI  24
WINDOM         LGT SNOW  34  34 100 N14       29.74R WCI  24
WORTHINGTON    CLOUDY    32  30  93 N16       29.74R WCI  21
$$

IAZ001>003-012>014-020>022-031-032-NEZ013-014-SDZ071-251100-
NORTHWEST IOWA

CITY           SKY/WX    TMP DP  RH WIND       PRES   REMARKS
CHEROKEE       FLURRIES  33  33 100 N12       29.70R WCI  24
DENISON        LGT SNOW  34  34 100 N14G20    29.65R WCI  24
ESTHERVILLE    LGT SNOW  32  31  96 N17       29.69R FOG     WCI  21
LE MARS        LGT RAIN  34  34 100 N16       29.75R WCI  23
ORANGE CITY    LGT RAIN  34  32  93 N14G20    29.73R WCI  24
SHELDON        FLURRIES  34  34 100 N16       29.72R WCI  23
SIOUX CITY     LGT SNOW  34  32  92 NW17      29.75R FOG     WCI  23
SPENCER        CLOUDY    35  32  88 N17       29.70R WCI  25
STORM LAKE     LGT SNOW  34  32  93 N17G23    29.67R WCI  23
$$

ABBREVIATIONS USED IN REMARKS
   TC - TEMPERATURE IN CELSIUS
  WCI - WIND CHILL INDEX
   HX - HEAT INDEX
  VSB - VISIBILITY



USA.gov is the U.S. government's official web portal to all federal, state and local government web resources and services.